| time (UTC) | temp F | wind direction | speed MPH | gust MPH | rain 1hr in | rain 24hr in | rain mn in | humidity % | barometer mb |
| 20260901192202 | 98 | 241 | 2.0 | 6.0 | 0.00 | 0.00 | 0.00 | 44 | 1019.4 |
| 20260901191703 | 98 | 192 | 2.0 | 7.0 | 0.00 | 0.00 | 0.00 | 45 | 1019.4 |
| 20260901191204 | 97 | 36 | 2.0 | 8.0 | 0.00 | 0.00 | 0.00 | 44 | 1019.4 |
| 20260901190701 | 97 | 213 | 1.0 | 8.0 | 0.00 | 0.00 | 0.00 | 47 | 1019.5 |
| 20260901190205 | 96 | 53 | 2.0 | 8.0 | 0.00 | 0.00 | 0.00 | 46 | 1019.7 |
| 20260901185709 | 96 | 165 | 2.0 | 8.0 | 0.00 | 0.00 | 0.00 | 47 | 1019.7 |
| 20260901185205 | 96 | 229 | 2.0 | 9.0 | 0.00 | 0.00 | 0.00 | 47 | 1019.7 |
| 20260901184705 | 95 | 316 | 2.0 | 9.0 | 0.00 | 0.00 | 0.00 | 46 | 1019.7 |
| 20260901184207 | 95 | 279 | 2.0 | 9.0 | 0.00 | 0.00 | 0.00 | 48 | 1019.7 |
| 20260901184036 | 95 | 235 | 2.0 | 5.0 | 0.00 | 0.00 | 0.00 | 47 | 1019.7 |
| 20260901183203 | 95 | 16 | 1.0 | 5.0 | 0.00 | 0.00 | 0.00 | 47 | 1019.8 |
| 20260901182706 | 95 | 147 | 2.0 | 5.0 | 0.00 | 0.00 | 0.00 | 48 | 1019.9 |
| 20260901182206 | 95 | 203 | 2.0 | 4.0 | 0.00 | 0.00 | 0.00 | 50 | 1019.9 |
| 20260901181708 | 96 | 40 | 1.0 | 4.0 | 0.00 | 0.00 | 0.00 | 49 | 1019.9 |
| 20260901181204 | 96 | 64 | 1.0 | 4.0 | 0.00 | 0.00 | 0.00 | 49 | 1020.0 |
| 20260901180706 | 95 | 53 | 2.0 | 8.0 | 0.00 | 0.00 | 0.00 | 49 | 1020.0 |
| 20260901180206 | 95 | 275 | 2.0 | 8.0 | 0.00 | 0.00 | 0.00 | 48 | 1020.0 |
| 20260901175955 | 95 | 28 | 1.0 | 7.0 | 0.00 | 0.00 | 0.00 | 50 | 1020.1 |
| 20260901175206 | 94 | 5 | 2.0 | 5.0 | 0.00 | 0.00 | 0.00 | 50 | 1020.0 |
| 20260901174704 | 94 | 43 | 2.0 | 6.0 | 0.00 | 0.00 | 0.00 | 50 | 1020.1 |
| 20260901174200 | 94 | 215 | 1.0 | 6.0 | 0.00 | 0.00 | 0.00 | 51 | 1020.2 |
| 20260901173701 | 94 | 0 | 1.0 | 4.0 | 0.00 | 0.00 | 0.00 | 52 | 1020.2 |
| 20260901173513 | 94 | 47 | 2.0 | 8.0 | 0.00 | 0.00 | 0.00 | 53 | 1020.3 |
| 20260901172709 | 93 | 327 | 2.0 | 8.0 | 0.00 | 0.00 | 0.00 | 52 | 1020.2 |
| 20260901172203 | 93 | 212 | 2.0 | 5.0 | 0.00 | 0.00 | 0.00 | 53 | 1020.4 |
| 20260901171657 | 93 | 277 | 2.0 | 5.0 | 0.00 | 0.00 | 0.00 | 53 | 1020.4 |
| 20260901171147 | 93 | 241 | 2.0 | 5.0 | 0.00 | 0.00 | 0.00 | 52 | 1020.4 |
| 20260901170649 | 93 | 61 | 1.0 | 4.0 | 0.00 | 0.00 | 0.00 | 54 | 1020.5 |
| 20260901170149 | 93 | 215 | 1.0 | 4.0 | 0.00 | 0.00 | 0.00 | 53 | 1020.5 |
| 20260901165651 | 92 | 227 | 1.0 | 7.0 | 0.00 | 0.00 | 0.00 | 54 | 1020.5 |
| 20260901165150 | 92 | 75 | 2.0 | 7.0 | 0.00 | 0.00 | 0.00 | 54 | 1020.6 |
| 20260901164644 | 91 | 192 | 2.0 | 6.0 | 0.00 | 0.00 | 0.00 | 56 | 1020.7 |
| 20260901164510 | 91 | 344 | 1.0 | 5.0 | 0.00 | 0.00 | 0.00 | 56 | 1020.8 |
| 20260901163644 | 91 | 61 | 1.0 | 5.0 | 0.00 | 0.00 | 0.00 | 57 | 1020.8 |
| 20260901163146 | 90 | 322 | 2.0 | 9.0 | 0.00 | 0.00 | 0.00 | 58 | 1020.9 |
| 20260901162643 | 90 | 277 | 2.0 | 9.0 | 0.00 | 0.00 | 0.00 | 58 | 1020.9 |
| 20260901162144 | 90 | 72 | 2.0 | 6.0 | 0.00 | 0.00 | 0.00 | 60 | 1021.0 |
| 20260901161644 | 90 | 120 | 1.0 | 6.0 | 0.00 | 0.00 | 0.00 | 59 | 1021.0 |
| 20260901161143 | 89 | 175 | 1.0 | 5.0 | 0.00 | 0.00 | 0.00 | 61 | 1020.9 |
| 20260901161000 | 89 | 169 | 1.0 | 5.0 | 0.00 | 0.00 | 0.00 | 62 | 1021.0 |
| 20260901160144 | 88 | 13 | 1.0 | 4.0 | 0.00 | 0.00 | 0.00 | 63 | 1021.2 |
| 20260901155642 | 88 | 208 | 1.0 | 3.0 | 0.00 | 0.00 | 0.00 | 63 | 1021.3 |
| 20260901155145 | 88 | 342 | 1.0 | 4.0 | 0.00 | 0.00 | 0.00 | 63 | 1021.2 |
| 20260901154643 | 87 | 40 | 1.0 | 4.0 | 0.00 | 0.00 | 0.00 | 64 | 1021.3 |
| 20260901154142 | 87 | 226 | 2.0 | 4.0 | 0.00 | 0.00 | 0.00 | 65 | 1021.3 |
| 20260901153644 | 87 | 333 | 1.0 | 4.0 | 0.00 | 0.00 | 0.00 | 66 | 1021.4 |
| 20260901153450 | 86 | 331 | 1.0 | 3.0 | 0.00 | 0.00 | 0.00 | 66 | 1021.3 |
| 20260901152639 | 86 | 0 | 1.0 | 5.0 | 0.00 | 0.00 | 0.00 | 67 | 1021.5 |
| 20260901152139 | 86 | 70 | 1.0 | 5.0 | 0.00 | 0.00 | 0.00 | 67 | 1021.4 |
| 20260901151639 | 85 | 228 | 1.0 | 3.0 | 0.00 | 0.00 | 0.00 | 69 | 1021.4 |
| 20260901151142 | 85 | 192 | 1.0 | 3.0 | 0.00 | 0.00 | 0.00 | 69 | 1021.4 |
| 20260901150935 | 85 | 25 | 1.0 | 3.0 | 0.00 | 0.00 | 0.00 | 69 | 1021.4 |
| 20260901150140 | 85 | 215 | 1.0 | 4.0 | 0.00 | 0.00 | 0.00 | 70 | 1021.4 |
| 20260901145639 | 84 | 15 | 1.0 | 4.0 | 0.00 | 0.00 | 0.00 | 70 | 1021.4 |
| 20260901145139 | 84 | 350 | 1.0 | 3.0 | 0.00 | 0.00 | 0.00 | 72 | 1021.5 |
| 20260901144950 | 84 | 218 | 1.0 | 4.0 | 0.00 | 0.00 | 0.00 | 71 | 1021.5 |
| 20260901144136 | 83 | 261 | 1.0 | 4.0 | 0.00 | 0.00 | 0.00 | 74 | 1021.5 |
| 20260901143634 | 83 | 327 | 2.0 | 6.0 | 0.00 | 0.00 | 0.00 | 74 | 1021.5 |
| 20260901143135 | 83 | 232 | 2.0 | 6.0 | 0.00 | 0.00 | 0.00 | 75 | 1021.4 |
| 20260901142630 | 82 | 209 | 1.0 | 4.0 | 0.00 | 0.00 | 0.00 | 77 | 1021.5 |
| 20260901142132 | 81 | 12 | 1.0 | 4.0 | 0.00 | 0.00 | 0.00 | 78 | 1021.3 |
| 20260901141630 | 81 | 205 | 1.0 | 4.0 | 0.00 | 0.00 | 0.00 | 79 | 1021.3 |
| 20260901141448 | 80 | 293 | 1.0 | 4.0 | 0.00 | 0.00 | 0.00 | 81 | 1021.3 |
| 20260901140636 | 80 | 35 | 1.0 | 4.0 | 0.00 | 0.00 | 0.00 | 83 | 1021.4 |
| 20260901140135 | 79 | 251 | 1.0 | 4.0 | 0.00 | 0.00 | 0.00 | 84 | 1021.4 |
| 20260901135629 | 79 | 0 | 1.0 | 3.0 | 0.00 | 0.00 | 0.00 | 86 | 1021.4 |
| 20260901135129 | 78 | 155 | 1.0 | 4.0 | 0.00 | 0.00 | 0.00 | 88 | 1021.4 |
| 20260901134630 | 78 | 11 | 1.0 | 4.0 | 0.00 | 0.00 | 0.00 | 89 | 1021.3 |
| 20260901134129 | 77 | 22 | 1.0 | 4.0 | 0.00 | 0.00 | 0.00 | 92 | 1021.3 |
| 20260901133629 | 77 | 116 | 1.0 | 4.0 | 0.00 | 0.00 | 0.00 | 94 | 1021.2 |
| 20260901133129 | 76 | 171 | 0.0 | 3.0 | 0.00 | 0.00 | 0.00 | 95 | 1021.2 |
| 20260901132630 | 76 | 25 | 0.0 | 2.0 | 0.00 | 0.00 | 0.00 | 95 | 1021.2 |
| 20260901132130 | 76 | 355 | 1.0 | 3.0 | 0.00 | 0.00 | 0.00 | 95 | 1021.2 |
| 20260901131621 | 76 | 5 | 1.0 | 3.0 | 0.00 | 0.00 | 0.00 | 96 | 1021.2 |
| 20260901131118 | 75 | 327 | 0.0 | 2.0 | 0.00 | 0.00 | 0.00 | 96 | 1021.3 |
| 20260901130613 | 75 | 325 | 0.0 | 2.0 | 0.00 | 0.00 | 0.00 | 96 | 1021.2 |
| 20260901130252 | 74 | 303 | 0.0 | 1.0 | 0.00 | 0.00 | 0.00 | 96 | 1021.3 |
| 20260901130219 | 75 | 333 | 0.0 | 2.0 | 0.00 | 0.00 | 0.00 | 96 | 1021.2 |
| 20260901125112 | 74 | 303 | 0.0 | 1.0 | 0.00 | 0.00 | 0.00 | 96 | 1021.3 |
| 20260901124617 | 74 | 303 | 0.0 | 1.0 | 0.00 | 0.00 | 0.00 | 96 | 1021.1 |
| 20260901124113 | 73 | 303 | 0.0 | 0.0 | 0.00 | 0.00 | 0.00 | 96 | 1021.2 |
| 20260901123930 | 73 | 303 | 0.0 | 0.0 | 0.00 | 0.00 | 0.00 | 95 | 1021.2 |
| 20260901123113 | 73 | 303 | 0.0 | 0.0 | 0.00 | 0.00 | 0.00 | 95 | 1021.0 |
| 20260901122612 | 73 | 303 | 0.0 | 0.0 | 0.00 | 0.00 | 0.00 | 95 | 1021.0 |
| 20260901122439 | 72 | 303 | 0.0 | 0.0 | 0.00 | 0.00 | 0.00 | 95 | 1021.1 |
| 20260901121610 | 72 | 303 | 0.0 | 0.0 | 0.00 | 0.00 | 0.00 | 95 | 1020.9 |
| 20260901121427 | 72 | 303 | 0.0 | 0.0 | 0.00 | 0.00 | 0.00 | 95 | 1020.8 |
| 20260901120608 | 72 | 303 | 0.0 | 0.0 | 0.00 | 0.00 | 0.00 | 95 | 1020.9 |
| 20260901120105 | 72 | 303 | 0.0 | 0.0 | 0.00 | 0.00 | 0.00 | 95 | 1020.9 |
| 20260901115604 | 72 | 303 | 0.0 | 1.0 | 0.00 | 0.00 | 0.00 | 95 | 1020.9 |
| 20260901115452 | 72 | 303 | 0.0 | 1.0 | 0.00 | 0.00 | 0.00 | 94 | 1020.8 |
| 20260901114602 | 72 | 303 | 0.0 | 1.0 | 0.00 | 0.00 | 0.00 | 94 | 1020.7 |
| 20260901114101 | 72 | 303 | 0.0 | 1.0 | 0.00 | 0.00 | 0.00 | 94 | 1020.5 |
| 20260901113604 | 72 | 303 | 0.0 | 1.0 | 0.00 | 0.00 | 0.00 | 94 | 1020.4 |
| 20260901113057 | 72 | 303 | 0.0 | 1.0 | 0.00 | 0.00 | 0.00 | 94 | 1020.3 |
| 20260901112851 | 72 | 303 | 0.0 | 0.0 | 0.00 | 0.00 | 0.00 | 94 | 1020.3 |
| 20260901112051 | 72 | 303 | 0.0 | 0.0 | 0.00 | 0.00 | 0.00 | 94 | 1020.3 |
| 20260901111549 | 72 | 303 | 0.0 | 0.0 | 0.00 | 0.00 | 0.00 | 94 | 1020.2 |
| 20260901111050 | 72 | 303 | 0.0 | 0.0 | 0.00 | 0.00 | 0.00 | 94 | 1020.1 |
| 20260901110816 | 72 | 303 | 0.0 | 0.0 | 0.00 | 0.00 | 0.00 | 94 | 1020.0 |
| 20260901110403 | 72 | 303 | 0.0 | 0.0 | 0.00 | 0.00 | 0.00 | 94 | 1020.1 |
| 20260901105548 | 72 | 303 | 0.0 | 0.0 | 0.00 | 0.00 | 0.00 | 93 | 1020.0 |
| 20260901105043 | 72 | 303 | 0.0 | 0.0 | 0.00 | 0.00 | 0.00 | 93 | 1020.0 |
| 20260901104544 | 72 | 303 | 0.0 | 0.0 | 0.00 | 0.00 | 0.00 | 93 | 1019.9 |
| 20260901104038 | 72 | 303 | 0.0 | 0.0 | 0.00 | 0.00 | 0.00 | 93 | 1019.9 |
| 20260901103540 | 72 | 303 | 0.0 | 0.0 | 0.00 | 0.00 | 0.00 | 94 | 1019.8 |
| 20260901103406 | 72 | 303 | 0.0 | 0.0 | 0.00 | 0.00 | 0.00 | 94 | 1020.0 |
| 20260901102538 | 72 | 303 | 0.0 | 0.0 | 0.00 | 0.00 | 0.00 | 94 | 1019.8 |
| 20260901102036 | 72 | 303 | 0.0 | 0.0 | 0.00 | 0.00 | 0.00 | 94 | 1019.8 |
| 20260901101534 | 72 | 303 | 0.0 | 0.0 | 0.00 | 0.00 | 0.00 | 94 | 1019.8 |
| 20260901101038 | 72 | 303 | 0.0 | 0.0 | 0.00 | 0.00 | 0.00 | 93 | 1019.8 |
| 20260901100532 | 73 | 303 | 0.0 | 1.0 | 0.00 | 0.00 | 0.00 | 93 | 1019.8 |
| 20260901100402 | 73 | 303 | 0.0 | 1.0 | 0.00 | 0.00 | 0.00 | 93 | 1019.8 |
| 20260901095531 | 72 | 303 | 0.0 | 1.0 | 0.00 | 0.00 | 0.00 | 93 | 1019.8 |
| 20260901095030 | 73 | 303 | 0.0 | 0.0 | 0.00 | 0.00 | 0.00 | 93 | 1019.8 |
| 20260901094530 | 73 | 303 | 0.0 | 0.0 | 0.00 | 0.00 | 0.00 | 93 | 1019.7 |
| 20260901094029 | 73 | 303 | 0.0 | 0.0 | 0.00 | 0.00 | 0.00 | 93 | 1019.7 |
| 20260901093533 | 73 | 303 | 0.0 | 0.0 | 0.00 | 0.00 | 0.00 | 93 | 1019.7 |
| 20260901093417 | 73 | 303 | 0.0 | 1.0 | 0.00 | 0.00 | 0.00 | 93 | 1019.7 |
| 20260901092529 | 73 | 303 | 0.0 | 1.0 | 0.00 | 0.00 | 0.00 | 93 | 1019.7 |
| 20260901092401 | 73 | 303 | 0.0 | 1.0 | 0.00 | 0.00 | 0.00 | 93 | 1019.7 |
| 20260901091530 | 73 | 303 | 0.0 | 0.0 | 0.00 | 0.00 | 0.00 | 92 | 1019.7 |
| 20260901091034 | 73 | 303 | 0.0 | 0.0 | 0.00 | 0.00 | 0.00 | 92 | 1019.7 |
| 20260901090529 | 73 | 303 | 0.0 | 0.0 | 0.00 | 0.00 | 0.00 | 92 | 1019.7 |
| 20260901090032 | 73 | 303 | 0.0 | 1.0 | 0.00 | 0.00 | 0.00 | 92 | 1019.8 |
| 20260901085652 | 73 | 303 | 0.0 | 0.0 | 0.00 | 0.00 | 0.00 | 92 | 1019.9 |
| 20260901085631 | 73 | 303 | 0.0 | 1.0 | 0.00 | 0.00 | 0.00 | 92 | 1019.9 |
| 20260901084530 | 73 | 303 | 0.0 | 0.0 | 0.00 | 0.00 | 0.00 | 91 | 1019.9 |
| 20260901084028 | 73 | 303 | 0.0 | 0.0 | 0.00 | 0.00 | 0.00 | 91 | 1019.9 |
| 20260901083530 | 73 | 303 | 0.0 | 0.0 | 0.00 | 0.00 | 0.00 | 91 | 1020.0 |
| 20260901083028 | 73 | 303 | 0.0 | 0.0 | 0.00 | 0.00 | 0.00 | 91 | 1020.0 |
| 20260901082528 | 73 | 303 | 0.0 | 0.0 | 0.00 | 0.00 | 0.00 | 92 | 1020.0 |
| 20260901082030 | 73 | 303 | 0.0 | 0.0 | 0.00 | 0.00 | 0.00 | 92 | 1020.0 |
| 20260901081524 | 74 | 303 | 0.0 | 0.0 | 0.00 | 0.00 | 0.00 | 92 | 1020.0 |
| 20260901081015 | 74 | 303 | 0.0 | 0.0 | 0.00 | 0.00 | 0.00 | 92 | 1020.0 |
| 20260901080513 | 74 | 303 | 0.0 | 0.0 | 0.00 | 0.00 | 0.00 | 92 | 1020.0 |
| 20260901080010 | 74 | 303 | 0.0 | 1.0 | 0.00 | 0.00 | 0.00 | 92 | 1020.0 |
| 20260901075510 | 74 | 303 | 0.0 | 1.0 | 0.00 | 0.00 | 0.00 | 92 | 1020.1 |
| 20260901075314 | 74 | 303 | 0.0 | 1.0 | 0.00 | 0.00 | 0.00 | 91 | 1020.2 |
| 20260901074510 | 74 | 303 | 0.0 | 1.0 | 0.00 | 0.00 | 0.00 | 91 | 1020.2 |
| 20260901074010 | 74 | 303 | 0.0 | 0.0 | 0.00 | 0.00 | 0.00 | 91 | 1020.1 |
| 20260901073511 | 74 | 303 | 0.0 | 0.0 | 0.00 | 0.00 | 0.00 | 91 | 1020.1 |
| 20260901073010 | 74 | 303 | 0.0 | 0.0 | 0.00 | 0.00 | 0.00 | 91 | 1020.1 |
| 20260901072509 | 74 | 303 | 0.0 | 0.0 | 0.00 | 0.00 | 0.00 | 91 | 1020.2 |
| 20260901072337 | 74 | 303 | 0.0 | 0.0 | 0.00 | 0.00 | 0.00 | 91 | 1020.3 |
| 20260901071510 | 74 | 303 | 0.0 | 1.0 | 0.00 | 0.00 | 0.00 | 91 | 1020.2 |
| 20260901071010 | 74 | 303 | 0.0 | 1.0 | 0.00 | 0.00 | 0.00 | 91 | 1020.3 |
| 20260901070511 | 74 | 303 | 0.0 | 1.0 | 0.00 | 0.00 | 0.00 | 90 | 1020.3 |
| 20260901070013 | 74 | 303 | 0.0 | 1.0 | 0.00 | 0.00 | 0.00 | 90 | 1020.3 |
| 20260901065504 | 74 | 303 | 0.0 | 1.0 | 0.00 | 0.00 | 0.00 | 90 | 1020.3 |
| 20260901065003 | 74 | 303 | 0.0 | 0.0 | 0.00 | 0.00 | 0.00 | 90 | 1020.3 |
| 20260901064503 | 74 | 303 | 0.0 | 0.0 | 0.00 | 0.00 | 0.00 | 90 | 1020.3 |
| 20260901064002 | 74 | 303 | 0.0 | 1.0 | 0.00 | 0.00 | 0.00 | 90 | 1020.3 |
| 20260901063502 | 74 | 303 | 0.0 | 1.0 | 0.00 | 0.00 | 0.00 | 90 | 1020.4 |
| 20260901062959 | 74 | 293 | 0.0 | 1.0 | 0.00 | 0.00 | 0.00 | 90 | 1020.4 |
| 20260901062459 | 74 | 170 | 0.0 | 1.0 | 0.00 | 0.00 | 0.00 | 89 | 1020.4 |
| 20260901062001 | 74 | 159 | 0.0 | 1.0 | 0.00 | 0.00 | 0.00 | 89 | 1020.4 |
| 20260901061500 | 74 | 156 | 0.0 | 1.0 | 0.00 | 0.00 | 0.00 | 88 | 1020.3 |
| 20260901061315 | 74 | 156 | 0.0 | 0.0 | 0.00 | 0.00 | 0.00 | 88 | 1020.3 |
| 20260901060817 | 74 | 156 | 0.0 | 0.0 | 0.00 | 0.00 | 0.00 | 88 | 1020.5 |
| 20260901060000 | 75 | 156 | 0.0 | 0.0 | 0.00 | 0.00 | 0.00 | 88 | 1020.4 |
| 20260901055501 | 75 | 156 | 0.0 | 0.0 | 0.00 | 0.00 | 0.00 | 88 | 1020.4 |
| 20260901055000 | 75 | 156 | 0.0 | 0.0 | 0.00 | 0.00 | 0.00 | 88 | 1020.4 |
| 20260901054500 | 75 | 156 | 0.0 | 0.0 | 0.00 | 0.00 | 0.00 | 88 | 1020.5 |
| 20260901053959 | 75 | 156 | 0.0 | 0.0 | 0.00 | 0.00 | 0.00 | 87 | 1020.5 |
| 20260901053459 | 75 | 156 | 0.0 | 0.0 | 0.00 | 0.00 | 0.00 | 88 | 1020.4 |
| 20260901053324 | 75 | 156 | 0.0 | 0.0 | 0.00 | 0.00 | 0.00 | 87 | 1020.4 |
| 20260901052500 | 75 | 156 | 0.0 | 1.0 | 0.00 | 0.00 | 0.00 | 87 | 1020.5 |
| 20260901052004 | 75 | 156 | 0.0 | 1.0 | 0.00 | 0.00 | 0.00 | 87 | 1020.5 |
| 20260901051500 | 75 | 156 | 0.0 | 0.0 | 0.00 | 0.00 | 0.00 | 87 | 1020.4 |
| 20260901051001 | 76 | 156 | 0.0 | 0.0 | 0.00 | 0.00 | 0.00 | 87 | 1020.6 |
| 20260901050504 | 76 | 156 | 0.0 | 0.0 | 0.00 | 0.00 | 0.00 | 87 | 1020.6 |
| 20260901050003 | 76 | 156 | 0.0 | 0.0 | 0.00 | 0.00 | 0.00 | 86 | 1020.5 |
| 20260901045458 | 76 | 156 | 0.0 | 0.0 | 0.00 | 0.00 | 0.00 | 87 | 1020.6 |
| 20260901044959 | 76 | 156 | 0.0 | 0.0 | 0.00 | 0.00 | 0.00 | 86 | 1020.6 |
| 20260901044823 | 76 | 156 | 0.0 | 0.0 | 0.00 | 0.00 | 0.00 | 86 | 1020.5 |
| 20260901043958 | 76 | 156 | 0.0 | 0.0 | 0.00 | 0.00 | 0.00 | 87 | 1020.6 |
| 20260901043824 | 76 | 156 | 0.0 | 1.0 | 0.00 | 0.00 | 0.00 | 86 | 1020.5 |
| 20260901042949 | 76 | 156 | 0.0 | 1.0 | 0.00 | 0.00 | 0.00 | 87 | 1020.5 |
| 20260901042450 | 76 | 156 | 0.0 | 1.0 | 0.00 | 0.00 | 0.00 | 87 | 1020.5 |
| 20260901041944 | 76 | 156 | 0.0 | 1.0 | 0.00 | 0.00 | 0.00 | 87 | 1020.5 |
| 20260901041438 | 76 | 156 | 0.0 | 1.0 | 0.00 | 0.00 | 0.00 | 86 | 1020.5 |
| 20260901040931 | 77 | 156 | 0.0 | 1.0 | 0.00 | 0.00 | 0.00 | 86 | 1020.4 |
| 20260901040432 | 77 | 156 | 0.0 | 0.0 | 0.00 | 0.00 | 0.00 | 86 | 1020.4 |
| 20260901035930 | 77 | 156 | 0.0 | 0.0 | 0.00 | 0.00 | 0.00 | 86 | 1020.3 |
| 20260901035430 | 77 | 156 | 0.0 | 0.0 | 0.00 | 0.00 | 0.00 | 86 | 1020.3 |
| 20260901034931 | 77 | 156 | 0.0 | 0.0 | 0.00 | 0.00 | 0.00 | 86 | 1020.3 |
| 20260901034429 | 77 | 156 | 0.0 | 0.0 | 0.00 | 0.00 | 0.00 | 86 | 1020.3 |
| 20260901034223 | 77 | 156 | 0.0 | 0.0 | 0.00 | 0.00 | 0.00 | 85 | 1020.3 |
| 20260901033430 | 77 | 156 | 0.0 | 0.0 | 0.00 | 0.00 | 0.00 | 85 | 1020.3 |
| 20260901032930 | 77 | 156 | 0.0 | 0.0 | 0.00 | 0.00 | 0.00 | 85 | 1020.4 |
| 20260901032427 | 77 | 156 | 0.0 | 0.0 | 0.00 | 0.00 | 0.00 | 86 | 1020.4 |
| 20260901032248 | 77 | 156 | 0.0 | 0.0 | 0.00 | 0.00 | 0.00 | 86 | 1020.3 |
| 20260901031428 | 77 | 156 | 0.0 | 2.0 | 0.00 | 0.00 | 0.00 | 86 | 1020.4 |
| 20260901030925 | 77 | 156 | 1.0 | 2.0 | 0.00 | 0.00 | 0.00 | 86 | 1020.5 |
| 20260901030736 | 78 | 156 | 0.0 | 2.0 | 0.00 | 0.00 | 0.00 | 83 | 1020.4 |
| 20260901030259 | 78 | 192 | 0.0 | 0.0 | 0.00 | 0.00 | 0.00 | 82 | 1020.4 |
| 20260901025424 | 78 | 192 | 0.0 | 0.0 | 0.00 | 0.00 | 0.00 | 82 | 1020.5 |
| 20260901025243 | 78 | 192 | 0.0 | 0.0 | 0.00 | 0.00 | 0.00 | 82 | 1020.5 |
| 20260901024430 | 79 | 192 | 0.0 | 0.0 | 0.00 | 0.00 | 0.00 | 82 | 1020.5 |
| 20260901023930 | 79 | 192 | 0.0 | 0.0 | 0.00 | 0.00 | 0.00 | 82 | 1020.6 |
| 20260901023416 | 79 | 192 | 0.0 | 0.0 | 0.00 | 0.00 | 0.00 | 81 | 1020.7 |
| 20260901022914 | 79 | 192 | 0.0 | 1.0 | 0.00 | 0.00 | 0.00 | 81 | 1020.7 |
| 20260901022417 | 79 | 192 | 0.0 | 1.0 | 0.00 | 0.00 | 0.00 | 81 | 1020.7 |
| 20260901022251 | 79 | 192 | 0.0 | 1.0 | 0.00 | 0.00 | 0.00 | 81 | 1020.7 |
| 20260901021415 | 79 | 192 | 0.0 | 1.0 | 0.00 | 0.00 | 0.00 | 81 | 1020.7 |
| 20260901020914 | 80 | 192 | 0.0 | 1.0 | 0.00 | 0.00 | 0.00 | 80 | 1020.6 |
| 20260901020415 | 80 | 192 | 0.0 | 1.0 | 0.00 | 0.00 | 0.00 | 80 | 1020.5 |
| 20260901015916 | 80 | 192 | 0.0 | 1.0 | 0.00 | 0.00 | 0.00 | 79 | 1020.5 |
| 20260901015413 | 80 | 192 | 0.0 | 1.0 | 0.00 | 0.00 | 0.00 | 79 | 1020.4 |
| 20260901014920 | 81 | 192 | 0.0 | 0.0 | 0.00 | 0.00 | 0.00 | 79 | 1020.4 |
| 20260901014914 | 80 | 192 | 0.0 | 1.0 | 0.00 | 0.00 | 0.00 | 79 | 1020.4 |
| 20260901014513 | 80 | 192 | 0.0 | 1.0 | 0.00 | 0.00 | 0.00 | 79 | 1020.4 |
| 20260901013408 | 81 | 192 | 0.0 | 0.0 | 0.00 | 0.00 | 0.00 | 78 | 1020.3 |
| 20260901012907 | 81 | 192 | 0.0 | 0.0 | 0.00 | 0.00 | 0.00 | 78 | 1020.2 |
| 20260901012412 | 81 | 192 | 0.0 | 0.0 | 0.00 | 0.00 | 0.00 | 77 | 1020.1 |
| 20260901011909 | 81 | 192 | 0.0 | 0.0 | 0.00 | 0.00 | 0.00 | 76 | 1020.1 |
| 20260901011407 | 82 | 192 | 0.0 | 0.0 | 0.00 | 0.00 | 0.00 | 75 | 1020.0 |
| 20260901010909 | 82 | 192 | 0.0 | 0.0 | 0.00 | 0.00 | 0.00 | 74 | 1020.0 |
| 20260901010411 | 82 | 192 | 0.0 | 0.0 | 0.00 | 0.00 | 0.00 | 74 | 1019.9 |
| 20260901005910 | 83 | 192 | 0.0 | 0.0 | 0.00 | 0.00 | 0.00 | 74 | 1019.9 |
| 20260901005407 | 83 | 192 | 0.0 | 0.0 | 0.00 | 0.00 | 0.00 | 73 | 1019.8 |
| 20260901004907 | 83 | 192 | 0.0 | 0.0 | 0.00 | 0.00 | 0.00 | 72 | 1019.8 |
| 20260901004702 | 83 | 192 | 0.0 | 0.0 | 0.00 | 0.00 | 0.00 | 72 | 1019.7 |
| 20260901003912 | 84 | 192 | 0.0 | 0.0 | 0.00 | 0.00 | 0.00 | 71 | 1019.7 |
| 20260901003412 | 84 | 192 | 0.0 | 0.0 | 0.00 | 0.00 | 0.00 | 71 | 1019.6 |
| 20260901003227 | 85 | 192 | 0.0 | 0.0 | 0.00 | 0.00 | 0.00 | 70 | 1019.5 |
| 20260901002411 | 85 | 192 | 0.0 | 0.0 | 0.00 | 0.00 | 0.00 | 69 | 1019.5 |
| 20260901002023 | 85 | 192 | 0.0 | 0.0 | 0.00 | 0.00 | 0.00 | 68 | 1019.4 |
| 20260901002000 | 85 | 192 | 0.0 | 0.0 | 0.00 | 0.00 | 0.00 | 69 | 1019.5 |
| 20260901001418 | 85 | 192 | 0.0 | 0.0 | 0.00 | 0.00 | 0.00 | 68 | 1019.4 |
| 20260901000906 | 86 | 192 | 0.0 | 1.0 | 0.00 | 0.00 | 0.00 | 68 | 1019.3 |
| 20260901000406 | 86 | 192 | 0.0 | 1.0 | 0.00 | 0.00 | 0.00 | 67 | 1019.3 |
| 20260901000235 | 86 | 192 | 0.0 | 0.0 | 0.00 | 0.00 | 0.00 | 66 | 1019.3 |
| 20260831235405 | 87 | 192 | 0.0 | 0.0 | 0.00 | 0.00 | 0.00 | 65 | 1019.2 |
| 20260831234902 | 87 | 192 | 0.0 | 1.0 | 0.00 | 0.00 | 0.00 | 65 | 1019.3 |
| 20260831234403 | 87 | 192 | 0.0 | 1.0 | 0.00 | 0.00 | 0.00 | 66 | 1019.2 |
| 20260831233859 | 87 | 192 | 0.0 | 1.0 | 0.00 | 0.00 | 0.00 | 68 | 1019.3 |
| 20260831233359 | 87 | 192 | 0.0 | 1.0 | 0.00 | 0.00 | 0.00 | 68 | 1019.4 |
| 20260831232858 | 87 | 192 | 0.0 | 0.0 | 0.00 | 0.00 | 0.00 | 68 | 1019.4 |
| 20260831232354 | 88 | 192 | 0.0 | 0.0 | 0.00 | 0.00 | 0.00 | 68 | 1019.4 |
| 20260831231853 | 88 | 192 | 0.0 | 0.0 | 0.00 | 0.00 | 0.00 | 68 | 1019.5 |
| 20260831231353 | 88 | 192 | 0.0 | 0.0 | 0.00 | 0.00 | 0.00 | 67 | 1019.4 |
| 20260831231014 | 89 | 192 | 0.0 | 0.0 | 0.00 | 0.00 | 0.00 | 66 | 1019.5 |
| 20260831230937 | 88 | 192 | 0.0 | 0.0 | 0.00 | 0.00 | 0.00 | 67 | 1019.4 |
| 20260831230204 | 89 | 192 | 0.0 | 0.0 | 0.00 | 0.00 | 0.00 | 65 | 1019.5 |
| 20260831225632 | 89 | 192 | 0.0 | 1.0 | 0.00 | 0.00 | 0.00 | 65 | 1019.4 |
| 20260831224841 | 89 | 192 | 0.0 | 1.0 | 0.00 | 0.00 | 0.00 | 64 | 1019.5 |
| 20260831224648 | 89 | 192 | 0.0 | 0.0 | 0.00 | 0.00 | 0.00 | 63 | 1019.6 |
| 20260831223835 | 89 | 192 | 0.0 | 0.0 | 0.00 | 0.00 | 0.00 | 62 | 1019.6 |
| 20260831223333 | 90 | 192 | 0.0 | 0.0 | 0.00 | 0.00 | 0.00 | 63 | 1019.7 |
| 20260831223159 | 90 | 192 | 0.0 | 0.0 | 0.00 | 0.00 | 0.00 | 62 | 1019.8 |
| 20260831222331 | 90 | 192 | 0.0 | 1.0 | 0.00 | 0.00 | 0.00 | 62 | 1019.7 |
| 20260831221829 | 90 | 192 | 0.0 | 1.0 | 0.00 | 0.00 | 0.00 | 60 | 1019.7 |
| 20260831221320 | 90 | 192 | 0.0 | 0.0 | 0.00 | 0.00 | 0.00 | 61 | 1019.7 |
| 20260831220817 | 90 | 192 | 0.0 | 1.0 | 0.00 | 0.00 | 0.00 | 62 | 1019.7 |
| 20260831220319 | 90 | 192 | 0.0 | 1.0 | 0.00 | 0.00 | 0.00 | 59 | 1019.7 |
| 20260831215829 | 90 | 192 | 0.0 | 1.0 | 0.00 | 0.00 | 0.00 | 61 | 1019.7 |
| 20260831215823 | 90 | 192 | 0.0 | 1.0 | 0.00 | 0.00 | 0.00 | 61 | 1019.7 |
| 20260831215815 | 90 | 192 | 0.0 | 0.0 | 0.00 | 0.00 | 0.00 | 62 | 1019.7 |
| 20260831214313 | 90 | 192 | 0.0 | 1.0 | 0.00 | 0.00 | 0.00 | 61 | 1019.7 |
| 20260831213813 | 90 | 192 | 0.0 | 1.0 | 0.00 | 0.00 | 0.00 | 60 | 1019.7 |
| 20260831213316 | 90 | 192 | 0.0 | 1.0 | 0.00 | 0.00 | 0.00 | 58 | 1019.8 |
| 20260831212811 | 90 | 192 | 0.0 | 1.0 | 0.00 | 0.00 | 0.00 | 57 | 1019.8 |
| 20260831212313 | 90 | 192 | 0.0 | 1.0 | 0.00 | 0.00 | 0.00 | 59 | 1020.0 |
| 20260831211958 | 90 | 191 | 0.0 | 2.0 | 0.00 | 0.00 | 0.00 | 56 | 1019.9 |
| 20260831211921 | 90 | 192 | 0.0 | 1.0 | 0.00 | 0.00 | 0.00 | 59 | 1019.9 |
| 20260831210809 | 90 | 190 | 0.0 | 2.0 | 0.00 | 0.00 | 0.00 | 56 | 1019.9 |
| 20260831210309 | 90 | 183 | 0.0 | 1.0 | 0.00 | 0.00 | 0.00 | 56 | 1019.9 |
| 20260831205809 | 91 | 185 | 0.0 | 1.0 | 0.00 | 0.00 | 0.00 | 56 | 1019.8 |
| 20260831205308 | 91 | 189 | 0.0 | 1.0 | 0.00 | 0.00 | 0.00 | 56 | 1020.0 |
| 20260831204808 | 92 | 242 | 0.0 | 1.0 | 0.00 | 0.00 | 0.00 | 56 | 1020.0 |
| 20260831204307 | 92 | 242 | 0.0 | 1.0 | 0.00 | 0.00 | 0.00 | 56 | 1020.0 |
| 20260831203802 | 92 | 199 | 0.0 | 1.0 | 0.00 | 0.00 | 0.00 | 55 | 1020.0 |
| 20260831203305 | 93 | 222 | 0.0 | 2.0 | 0.00 | 0.00 | 0.00 | 54 | 1020.0 |
| 20260831202803 | 93 | 222 | 1.0 | 3.0 | 0.00 | 0.00 | 0.00 | 53 | 1020.1 |
| 20260831202305 | 93 | 165 | 1.0 | 3.0 | 0.00 | 0.00 | 0.00 | 54 | 1020.1 |
| 20260831201806 | 93 | 175 | 2.0 | 4.0 | 0.00 | 0.00 | 0.00 | 54 | 1020.2 |
| 20260831201646 | 94 | 117 | 2.0 | 4.0 | 0.00 | 0.00 | 0.00 | 52 | 1020.3 |
| 20260831201045 | 94 | 136 | 2.0 | 3.0 | 0.00 | 0.00 | 0.00 | 51 | 1020.3 |
| 20260831200309 | 95 | 111 | 1.0 | 3.0 | 0.00 | 0.00 | 0.00 | 51 | 1020.4 |
| 20260831200130 | 96 | 221 | 1.0 | 3.0 | 0.00 | 0.00 | 0.00 | 49 | 1020.3 |
| 20260831195306 | 95 | 261 | 1.0 | 3.0 | 0.00 | 0.00 | 0.00 | 47 | 1020.3 |
| 20260831195109 | 95 | 263 | 1.0 | 3.0 | 0.00 | 0.00 | 0.00 | 48 | 1020.5 |
| 20260831194300 | 94 | 261 | 1.0 | 3.0 | 0.00 | 0.00 | 0.00 | 47 | 1020.6 |
| 20260831193801 | 95 | 193 | 1.0 | 3.0 | 0.00 | 0.00 | 0.00 | 47 | 1020.6 |
| 20260831193300 | 94 | 315 | 0.0 | 2.0 | 0.00 | 0.00 | 0.00 | 48 | 1020.6 |
| 20260831192801 | 93 | 105 | 1.0 | 2.0 | 0.00 | 0.00 | 0.00 | 50 | 1020.6 |